,,PA_Meas_PMT16A,,PR_Meas_QMR101_102,,RH_Meas_QMH101,,SR_Meas_QMS101,,TA_Meas_QMH101,,GenWind,,GenWind,
time,status,PA,status,PR,status,RH,status,SR,status,TA,status,DirAvg,status,SpdAvg,
2016-06-11, 07:05:04,VALID,919.203,VALID,0,INVALID,110.608,VALID,74.779,VALID,20.1123,VALID,150,VALID,0,
2016-06-11, 07:06:04,VALID,919.214,VALID,0,INVALID,110.593,VALID,71.9856,VALID,20.1318,VALID,150,VALID,0,
2016-06-11, 07:19:04,VALID,919.288,VALID,0,INVALID,110.547,VALID,116.359,VALID,20.3854,VALID,157,VALID,0,
2016-06-11, 07:20:04,VALID,919.331,VALID,0,INVALID,110.601,VALID,108.408,VALID,20.4454,VALID,156,VALID,0,
2016-06-11, 07:21:04,VALID,919.361,VALID,0,INVALID,110.707,VALID,117.003,VALID,20.4049,VALID,154,VALID,0,
2016-06-11, 07:43:04,VALID,919.714,VALID,0,INVALID,112.682,VALID,101.747,VALID,21.1266,VALID,170,VALID,0,
2016-06-11, 07:44:04,VALID,919.765,VALID,0,INVALID,112.903,VALID,99.1682,VALID,21.1852,VALID,174,VALID,0,
2016-06-11, 08:38:04,VALID,920.141,VALID,0,INVALID,113.718,VALID,121.838,VALID,21.8469,VALID,83,VALID,0,
2016-06-11, 08:39:04,VALID,920.147,VALID,0,INVALID,113.81,VALID,129.896,VALID,21.9249,VALID,83,VALID,0,
2016-06-11, 08:40:04,VALID,920.133,VALID,0,INVALID,113.764,VALID,137.31,VALID,21.9249,VALID,83,VALID,0,
2016-06-11, 08:41:04,VALID,920.117,VALID,0,INVALID,113.635,VALID,144.831,VALID,21.8876,VALID,83,VALID,0,
2016-06-11, 08:42:04,VALID,920.107,VALID,0,INVALID,113.741,VALID,149.666,VALID,21.8664,VALID,98,VALID,0,
2016-06-11, 08:43:04,VALID,920.146,VALID,0,INVALID,113.84,VALID,162.666,VALID,21.9054,VALID,98,VALID,0,
2016-06-11, 08:44:04,VALID,920.17,VALID,0,INVALID,113.825,VALID,334.894,VALID,21.9444,VALID,98,VALID,0,
2016-06-11, 08:45:04,VALID,920.183,VALID,0,INVALID,113.772,VALID,193.394,VALID,22.003,VALID,98,VALID,0,
2016-06-11, 08:46:04,VALID,920.192,VALID,0,INVALID,113.757,VALID,156.542,VALID,22.1396,VALID,98,VALID,0,
2016-06-11, 08:47:04,VALID,920.199,VALID,0,INVALID,113.345,VALID,146.979,VALID,22.2567,VALID,98,VALID,0,
2016-06-11, 08:48:04,VALID,920.184,VALID,0,INVALID,111.592,VALID,139.029,VALID,22.3542,VALID,98,VALID,0,
2016-06-11, 08:49:04,VALID,920.193,VALID,0,INVALID,110.349,VALID,131.293,VALID,22.4501,VALID,98,VALID,0,
2016-06-11, 08:50:04,VALID,920.171,VALID,0,INVALID,109.442,VALID,117.756,VALID,22.5689,VALID,97,VALID,0,
2016-06-11, 08:59:04,VALID,920.2,VALID,0,VALID,104,VALID,127.748,VALID,22.9575,VALID,97,VALID,0,
2016-06-11, 09:00:04,VALID,920.2,VALID,0,VALID,104,VALID,131.078,VALID,22.9397,VALID,97,VALID,0,
2016-06-11, 09:01:04,VALID,920.177,VALID,0,VALID,104,VALID,134.516,VALID,22.8812,VALID,97,VALID,0,
2016-06-11, 09:02:04,VALID,920.178,VALID,0,VALID,104,VALID,139.673,VALID,22.8812,VALID,93,VALID,0,
2016-06-11, 09:03:04,VALID,920.183,VALID,0,VALID,104,VALID,143.326,VALID,22.8226,VALID,83,VALID,0,
2016-06-11, 09:04:04,VALID,920.148,VALID,0,INVALID,109.266,VALID,137.525,VALID,22.7445,VALID,83,VALID,0,
2016-06-11, 09:05:04,VALID,920.153,VALID,0,INVALID,109.419,VALID,123.665,VALID,22.6665,VALID,83,VALID,0,
2016-06-11, 09:10:04,VALID,920.083,VALID,0,INVALID,111.271,VALID,129.037,VALID,22.5494,VALID,19,VALID,0,
2016-06-11, 09:11:04,VALID,920.071,VALID,0,INVALID,110.311,VALID,166.426,VALID,22.4713,VALID,48,VALID,0,
2016-06-11, 09:12:04,VALID,920.027,VALID,0,INVALID,110.631,VALID,171.154,VALID,22.3933,VALID,30,VALID,0,
2016-06-11, 09:13:04,VALID,919.989,VALID,0,INVALID,111.134,VALID,173.088,VALID,22.372,VALID,42,VALID,0,
2016-06-11, 09:14:04,VALID,919.929,VALID,0,INVALID,111.218,VALID,173.303,VALID,22.3933,VALID,42,VALID,0,
2016-06-11, 09:15:04,VALID,919.875,VALID,0,INVALID,111.05,VALID,178.46,VALID,22.4323,VALID,42,VALID,0,
2016-06-11, 09:16:04,VALID,919.873,VALID,0,INVALID,110.623,VALID,173.517,VALID,22.5299,VALID,42,VALID,0,
2016-06-11, 09:17:04,VALID,919.844,VALID,0,INVALID,110.425,VALID,163.955,VALID,22.5867,VALID,34,VALID,0,
2016-06-11, 09:18:04,VALID,919.817,VALID,0,INVALID,109.106,VALID,151.385,VALID,22.6274,VALID,316,VALID,0,
2016-06-11, 09:19:04,VALID,919.806,VALID,0,VALID,104,VALID,132.797,VALID,22.5884,VALID,312,VALID,0,
2016-06-11, 09:20:04,VALID,919.809,VALID,0,INVALID,109.663,VALID,116.574,VALID,22.647,VALID,316,VALID,0,
2016-06-11, 09:28:04,VALID,919.765,VALID,0,INVALID,109.381,VALID,115.929,VALID,22.5299,VALID,285,VALID,0,
2016-06-11, 09:29:04,VALID,919.752,VALID,0,INVALID,110.036,VALID,123.665,VALID,22.5103,VALID,286,VALID,0,
2016-06-11, 09:30:04,VALID,919.769,VALID,0,INVALID,110.036,VALID,133.12,VALID,22.5103,VALID,286,VALID,0,
2016-06-11, 09:31:04,VALID,919.752,VALID,0,INVALID,110.357,VALID,143.864,VALID,22.5103,VALID,286,VALID,0,
2016-06-11, 09:32:04,VALID,919.763,VALID,0,INVALID,110.227,VALID,154.393,VALID,22.5281,VALID,286,VALID,0,
2016-06-11, 09:33:04,VALID,919.784,VALID,0,INVALID,110.181,VALID,166.211,VALID,22.5689,VALID,302,VALID,0,
2016-06-11, 09:34:04,VALID,919.809,VALID,0,INVALID,110.326,VALID,194.146,VALID,22.5689,VALID,302,VALID,0,
2016-06-11, 09:35:04,VALID,919.839,VALID,0,INVALID,110.372,VALID,214.023,VALID,22.6079,VALID,302,VALID,0,
2016-06-11, 09:36:04,VALID,919.88,VALID,0,INVALID,109.991,VALID,234.114,VALID,22.7055,VALID,302,VALID,0,
2016-06-11, 09:37:04,VALID,919.873,VALID,0,INVALID,109.114,VALID,274.834,VALID,22.7836,VALID,302,VALID,0,
2016-06-11, 09:38:04,VALID,919.906,VALID,0,VALID,104,VALID,370.779,VALID,22.8812,VALID,302,VALID,0,
2016-06-11, 09:39:04,VALID,919.916,VALID,0,VALID,104,VALID,426.434,VALID,23.0373,VALID,302,VALID,0,
2016-06-11, 09:40:04,VALID,919.945,VALID,0,VALID,104,VALID,293.959,VALID,23.1739,VALID,297,VALID,0,
2016-06-11, 09:41:04,VALID,919.968,VALID,0,VALID,104,VALID,231.106,VALID,23.1917,VALID,298,VALID,0,
2016-06-11, 09:42:04,VALID,919.998,VALID,0,VALID,104,VALID,213.378,VALID,23.3869,VALID,17,VALID,0,
2016-06-11, 09:43:04,VALID,919.967,VALID,0,VALID,99.9659,VALID,206.18,VALID,23.4863,VALID,28,VALID,0,
2016-06-11, 09:44:04,VALID,919.958,VALID,0,VALID,99.3941,VALID,211.552,VALID,23.465,VALID,23,VALID,0,
2016-06-11, 09:45:04,VALID,919.926,VALID,0,VALID,100.324,VALID,201.882,VALID,23.4472,VALID,23,VALID,0,
2016-06-11, 09:46:04,VALID,919.938,VALID,0,VALID,101.75,VALID,195.65,VALID,23.3478,VALID,17,VALID,0,
2016-06-11, 09:47:04,VALID,919.917,VALID,0,VALID,104,VALID,192.964,VALID,23.3106,VALID,1,VALID,0,
2016-06-11, 09:48:04,VALID,919.884,VALID,0,VALID,104,VALID,191.03,VALID,23.2307,VALID,2,VALID,0,
2016-06-11, 09:49:04,VALID,919.865,VALID,0,VALID,104,VALID,189.419,VALID,23.2112,VALID,12,VALID,0,
2016-06-11, 09:50:04,VALID,919.847,VALID,0,VALID,104,VALID,189.956,VALID,23.2893,VALID,11,VALID,0,
2016-06-11, 09:51:04,VALID,919.843,VALID,0,VALID,104,VALID,193.931,VALID,23.3674,VALID,11,VALID,0,
2016-06-11, 09:52:04,VALID,919.851,VALID,0,VALID,103.823,VALID,197.262,VALID,23.4259,VALID,11,VALID,0,
2016-06-11, 09:53:04,VALID,919.839,VALID,0,VALID,101.056,VALID,203.386,VALID,23.504,VALID,351,VALID,0,
2016-06-11, 09:54:04,VALID,919.858,VALID,0,VALID,100.728,VALID,219.825,VALID,23.465,VALID,297,VALID,0,
2016-06-11, 09:55:04,VALID,919.854,VALID,0,VALID,102.68,VALID,218.965,VALID,23.4259,VALID,297,VALID,0,
2016-06-11, 09:56:04,VALID,919.856,VALID,0,VALID,97.938,VALID,219.287,VALID,23.465,VALID,297,VALID,0,
2016-06-11, 09:57:04,VALID,919.812,VALID,0,VALID,100.004,VALID,234.544,VALID,23.4845,VALID,297,VALID,0,
2016-06-11, 09:58:04,VALID,919.797,VALID,0,VALID,100.4,VALID,256.247,VALID,23.543,VALID,347,VALID,0,
2016-06-11, 09:59:04,VALID,919.769,VALID,0,VALID,96.764,VALID,271.826,VALID,23.5821,VALID,338,VALID,0,
2016-06-11, 10:00:04,VALID,919.762,VALID,0,VALID,92.007,VALID,313.084,VALID,23.543,VALID,302,VALID,0,
2016-06-11, 10:01:04,VALID,919.806,VALID,0,VALID,99.6685,VALID,333.39,VALID,23.465,VALID,311,VALID,0,
2016-06-11, 10:02:04,VALID,919.779,VALID,0,VALID,101.247,VALID,299.653,VALID,23.4259,VALID,309,VALID,0,
2016-06-11, 10:03:04,VALID,919.805,VALID,0,VALID,98.6318,VALID,292.455,VALID,23.465,VALID,201,VALID,0,
2016-06-11, 10:04:04,VALID,919.798,VALID,0,VALID,104,VALID,291.703,VALID,23.5821,VALID,202,VALID,0,
2016-06-11, 10:05:04,VALID,919.806,VALID,0,VALID,101.147,VALID,286.868,VALID,23.6211,VALID,210,VALID,0,
2016-06-11, 10:06:04,VALID,919.808,VALID,0,VALID,100.721,VALID,269.677,VALID,23.6797,VALID,269,VALID,0,
2016-06-11, 10:07:04,VALID,919.779,VALID,0,VALID,90.3527,VALID,265.165,VALID,23.6797,VALID,214,VALID,0,
2016-06-11, 10:08:04,VALID,919.811,VALID,0,VALID,89.1482,VALID,261.189,VALID,23.7187,VALID,226,VALID,0,
2016-06-11, 10:09:04,VALID,919.794,VALID,0,VALID,89.9182,VALID,253.991,VALID,23.7578,VALID,227,VALID,0,
2016-06-11, 10:10:04,VALID,919.814,VALID,0,VALID,90.5814,VALID,246.363,VALID,23.8536,VALID,227,VALID,0,
2016-06-11, 10:11:04,VALID,919.81,VALID,0,VALID,86.9451,VALID,240.991,VALID,23.9316,VALID,227,VALID,0,
2016-06-11, 10:12:04,VALID,919.818,VALID,0,VALID,84.658,VALID,237.338,VALID,24.0097,VALID,206,VALID,0,
2016-06-11, 10:13:04,VALID,919.821,VALID,0,VALID,86.5258,VALID,235.081,VALID,24.0311,VALID,255,VALID,0,
2016-06-11, 10:14:04,VALID,919.808,VALID,0,VALID,86.5563,VALID,233.04,VALID,23.8926,VALID,255,VALID,0,
2016-06-11, 10:15:04,VALID,919.826,VALID,0,VALID,92.838,VALID,229.924,VALID,23.8145,VALID,255,VALID,0,
2016-06-11, 10:16:04,VALID,919.831,VALID,0,VALID,87.1128,VALID,227.453,VALID,23.6974,VALID,255,VALID,0,
2016-06-11, 10:17:04,VALID,919.819,VALID,0,VALID,89.476,VALID,226.593,VALID,23.6584,VALID,255,VALID,0,
2016-06-11, 10:18:04,VALID,919.825,VALID,0,VALID,93.5851,VALID,227.668,VALID,23.756,VALID,255,VALID,0,
2016-06-11, 10:19:04,VALID,919.851,VALID,0,VALID,92.3196,VALID,228.635,VALID,23.8536,VALID,255,VALID,0,
2016-06-11, 10:20:04,VALID,919.841,VALID,0,VALID,88.241,VALID,228.85,VALID,23.9316,VALID,284,VALID,0,
2016-06-11, 10:21:04,VALID,919.864,VALID,0,VALID,89.7581,VALID,229.065,VALID,23.9121,VALID,339,VALID,0,
2016-06-11, 10:22:04,VALID,919.866,VALID,0,VALID,93.8366,VALID,232.718,VALID,23.9707,VALID,339,VALID,0,
2016-06-11, 10:23:04,VALID,919.855,VALID,0,VALID,91.603,VALID,237.767,VALID,23.9902,VALID,275,VALID,0,
2016-06-11, 10:24:04,VALID,919.84,VALID,0,VALID,88.1419,VALID,243.999,VALID,23.9121,VALID,264,VALID,0,
2016-06-11, 10:25:04,VALID,919.832,VALID,0,VALID,88.2715,VALID,246.04,VALID,23.795,VALID,264,VALID,0,
2016-06-11, 10:26:04,VALID,919.84,VALID,0,VALID,94.2864,VALID,249.801,VALID,23.7364,VALID,253,VALID,0,
2016-06-11, 10:27:04,VALID,919.864,VALID,0,VALID,101.201,VALID,261.942,VALID,23.6388,VALID,258,VALID,0,
2016-06-11, 10:28:04,VALID,919.85,VALID,0,VALID,103.015,VALID,287.19,VALID,23.662,VALID,251,VALID,0,
2016-06-11, 10:29:04,VALID,919.882,VALID,0,VALID,101.315,VALID,290.628,VALID,23.662,VALID,230,VALID,0,
2016-06-11, 10:30:04,VALID,919.882,VALID,0,VALID,97.0766,VALID,314.05,VALID,23.5626,VALID,241,VALID,0,
2016-06-11, 10:31:04,VALID,919.886,VALID,0,VALID,100.355,VALID,339.407,VALID,23.504,VALID,252,VALID,0,
2016-06-11, 10:32:04,VALID,919.919,VALID,0,VALID,102.253,VALID,353.374,VALID,23.4454,VALID,255,VALID,0,
2016-06-11, 10:33:04,VALID,919.874,VALID,0,VALID,104,VALID,459.418,VALID,23.504,VALID,255,VALID,0,
2016-06-11, 10:34:04,VALID,919.879,VALID,0,VALID,104,VALID,372.069,VALID,23.6992,VALID,242,VALID,0,
2016-06-11, 10:35:04,VALID,919.936,VALID,0,VALID,103.023,VALID,250.983,VALID,23.8572,VALID,265,VALID,0,
2016-06-11, 10:36:04,VALID,919.894,VALID,0,VALID,97.1376,VALID,220.362,VALID,23.8163,VALID,251,VALID,0,
2016-06-11, 10:37:04,VALID,919.901,VALID,0,VALID,97.1757,VALID,200.7,VALID,23.8944,VALID,251,VALID,0,
2016-06-11, 10:38:04,VALID,919.884,VALID,0,VALID,100.599,VALID,184.799,VALID,23.8944,VALID,252,VALID,0,
2016-06-11, 10:39:04,VALID,919.886,VALID,0,VALID,97.8847,VALID,168.36,VALID,23.8358,VALID,248,VALID,0,
2016-06-11, 10:40:04,VALID,919.885,VALID,0,VALID,100.278,VALID,160.839,VALID,23.7578,VALID,258,VALID,0,
2016-06-11, 10:41:04,VALID,919.879,VALID,0,VALID,99.051,VALID,156.434,VALID,23.6016,VALID,260,VALID,0,
2016-06-11, 10:42:04,VALID,919.873,VALID,0,VALID,103.77,VALID,154.178,VALID,23.504,VALID,261,VALID,0,
2016-06-11, 10:43:04,VALID,919.89,VALID,0,VALID,103.564,VALID,151.814,VALID,23.4241,VALID,261,VALID,0,
2016-06-11, 10:44:04,VALID,919.895,VALID,0,VALID,103.77,VALID,153.426,VALID,23.4845,VALID,261,VALID,0,
2016-06-11, 10:45:04,VALID,919.932,VALID,0,VALID,103.732,VALID,163.525,VALID,23.5235,VALID,261,VALID,0,
2016-06-11, 10:46:04,VALID,919.887,VALID,0,VALID,104,VALID,200.7,VALID,23.504,VALID,261,VALID,0,
2016-06-11, 10:47:04,VALID,919.906,VALID,0,VALID,104,VALID,198.659,VALID,23.5608,VALID,261,VALID,0,
2016-06-11, 10:48:04,VALID,919.885,VALID,0,VALID,104,VALID,203.816,VALID,23.6992,VALID,261,VALID,0,
2016-06-11, 10:49:04,VALID,919.897,VALID,0,VALID,99.5923,VALID,203.923,VALID,23.7578,VALID,260,VALID,0,
2016-06-11, 10:50:04,VALID,919.892,VALID,0,VALID,97.5035,VALID,201.13,VALID,23.7578,VALID,260,VALID,0,
2016-06-11, 10:51:04,VALID,919.882,VALID,0,VALID,101.041,VALID,192.964,VALID,23.7968,VALID,115,VALID,0,
2016-06-11, 10:52:04,VALID,919.883,VALID,0,VALID,98.7461,VALID,187.162,VALID,23.7187,VALID,98,VALID,0,
2016-06-11, 10:53:04,VALID,919.861,VALID,0,VALID,99.9277,VALID,182.757,VALID,23.6797,VALID,98,VALID,0,
2016-06-11, 10:54:04,VALID,919.849,VALID,0,VALID,99.4551,VALID,179.856,VALID,23.6602,VALID,98,VALID,0,
2016-06-11, 10:55:04,VALID,919.831,VALID,0,VALID,99.2111,VALID,179.749,VALID,23.6193,VALID,98,VALID,0,
2016-06-11, 10:56:04,VALID,919.814,VALID,0,VALID,101.3,VALID,181.576,VALID,23.6406,VALID,98,VALID,0,
2016-06-11, 10:57:04,VALID,919.804,VALID,0,VALID,97.2595,VALID,183.295,VALID,23.6211,VALID,98,VALID,0,
2016-06-11, 10:58:04,VALID,919.78,VALID,0,VALID,100.782,VALID,183.08,VALID,23.5821,VALID,97,VALID,0,
2016-06-11, 10:59:04,VALID,919.758,VALID,0,VALID,101.384,VALID,183.08,VALID,23.5821,VALID,45,VALID,0,
2016-06-11, 11:00:04,VALID,919.723,VALID,0,VALID,98.7309,VALID,182.22,VALID,23.543,VALID,52,VALID,0,
2016-06-11, 11:01:04,VALID,919.739,VALID,0,VALID,100.195,VALID,180.931,VALID,23.465,VALID,61,VALID,0,
2016-06-11, 11:02:04,VALID,919.752,VALID,0,VALID,102.863,VALID,178.782,VALID,23.4064,VALID,61,VALID,0,
2016-06-11, 11:03:04,VALID,919.747,VALID,0,VALID,104,VALID,175.774,VALID,23.4259,VALID,52,VALID,0,
2016-06-11, 11:04:04,VALID,919.742,VALID,0,VALID,104,VALID,169.435,VALID,23.4437,VALID,53,VALID,0,
2016-06-11, 11:05:04,VALID,919.746,VALID,0,VALID,103.602,VALID,162.344,VALID,23.465,VALID,43,VALID,0,
2016-06-11, 11:06:04,VALID,919.754,VALID,0,VALID,101.483,VALID,157.401,VALID,23.4437,VALID,21,VALID,0,
2016-06-11, 11:07:04,VALID,919.765,VALID,0,VALID,99.3026,VALID,154.5,VALID,23.465,VALID,20,VALID,0,
2016-06-11, 11:08:04,VALID,919.746,VALID,0,VALID,98.5479,VALID,153.856,VALID,23.4845,VALID,28,VALID,0,
2016-06-11, 11:09:04,VALID,919.755,VALID,0,VALID,95.7196,VALID,156.327,VALID,23.4845,VALID,28,VALID,0,
2016-06-11, 11:10:04,VALID,919.73,VALID,0,VALID,99.7676,VALID,161.377,VALID,23.4845,VALID,27,VALID,0,
2016-06-11, 11:11:04,VALID,919.734,VALID,0,VALID,98.4412,VALID,164.707,VALID,23.5235,VALID,27,VALID,0,
2016-06-11, 11:12:04,VALID,919.738,VALID,0,VALID,98.1515,VALID,166.104,VALID,23.5803,VALID,28,VALID,0,
2016-06-11, 11:13:04,VALID,919.707,VALID,0,VALID,89.5675,VALID,165.244,VALID,23.6602,VALID,29,VALID,0,
2016-06-11, 11:14:04,VALID,919.73,VALID,0,VALID,93.2496,VALID,162.881,VALID,23.6779,VALID,47,VALID,0,
2016-06-11, 11:15:04,VALID,919.717,VALID,0,VALID,94.0425,VALID,159.443,VALID,23.7773,VALID,48,VALID,0,
2016-06-11, 11:16:04,VALID,919.705,VALID,0,VALID,96.6573,VALID,156.542,VALID,23.8536,VALID,21,VALID,0,
2016-06-11, 11:17:04,VALID,919.699,VALID,0,VALID,95.2393,VALID,154.5,VALID,23.8554,VALID,21,VALID,0,
2016-06-11, 11:18:04,VALID,919.715,VALID,0,VALID,93.425,VALID,154.5,VALID,23.8163,VALID,27,VALID,0,
2016-06-11, 11:19:04,VALID,919.678,VALID,0,VALID,98.4107,VALID,155.252,VALID,23.6992,VALID,25,VALID,0,
2016-06-11, 11:20:04,VALID,919.707,VALID,0,VALID,94.0425,VALID,157.294,VALID,23.5626,VALID,23,VALID,0,
2016-06-11, 11:21:04,VALID,919.706,VALID,0,VALID,102.039,VALID,159.872,VALID,23.5235,VALID,11,VALID,1.48438,
2016-06-11, 11:22:04,VALID,919.731,VALID,0,VALID,104,VALID,163.096,VALID,23.4845,VALID,10,VALID,0,
2016-06-11, 11:23:04,VALID,919.697,VALID,0,VALID,103.785,VALID,166.426,VALID,23.4454,VALID,355,VALID,1.55508,
2016-06-11, 11:24:04,VALID,919.661,VALID,0,VALID,104,VALID,170.939,VALID,23.4046,VALID,354,VALID,1.72344,
2016-06-11, 11:25:04,VALID,919.662,VALID,0,VALID,104,VALID,175.559,VALID,23.3283,VALID,345,VALID,1.06836,
2016-06-11, 11:26:04,VALID,919.612,VALID,0,VALID,104,VALID,180.394,VALID,23.2875,VALID,351,VALID,1.83867,
2016-06-11, 11:27:04,VALID,919.613,VALID,0,VALID,104,VALID,186.088,VALID,23.2698,VALID,2,VALID,0.420703,
2016-06-11, 11:28:04,VALID,919.574,VALID,0,INVALID,109.167,VALID,192.749,VALID,23.2893,VALID,349,VALID,0.415234,
2016-06-11, 11:29:04,VALID,919.579,VALID,0,INVALID,109.083,VALID,200.055,VALID,23.2893,VALID,334,VALID,0,
2016-06-11, 11:30:04,VALID,919.539,VALID,0.2,INVALID,109.686,VALID,207.576,VALID,23.3088,VALID,22,VALID,0,
2016-06-11, 11:31:04,VALID,919.521,VALID,0,VALID,104,VALID,215.097,VALID,23.2698,VALID,21,VALID,0,
2016-06-11, 11:32:04,VALID,919.48,VALID,0,INVALID,109.991,VALID,222.726,VALID,23.2893,VALID,21,VALID,0,
2016-06-11, 11:33:04,VALID,919.446,VALID,0,VALID,104,VALID,230.569,VALID,23.268,VALID,21,VALID,0,
2016-06-11, 11:34:04,VALID,919.423,VALID,0,INVALID,110.341,VALID,237.767,VALID,23.2893,VALID,20,VALID,0,
2016-06-11, 11:35:04,VALID,919.391,VALID,0,INVALID,111.271,VALID,244.321,VALID,23.3478,VALID,20,VALID,0,
2016-06-11, 11:36:04,VALID,919.367,VALID,0,INVALID,109.548,VALID,249.156,VALID,23.2875,VALID,18,VALID,0,
2016-06-11, 11:37:04,VALID,919.336,VALID,0,INVALID,109.533,VALID,252.379,VALID,23.2875,VALID,21,VALID,0,
2016-06-11, 11:38:04,VALID,919.34,VALID,0,INVALID,110.555,VALID,254.313,VALID,23.3088,VALID,15,VALID,0,
2016-06-11, 11:39:04,VALID,919.37,VALID,0,INVALID,111.858,VALID,254.85,VALID,23.3674,VALID,29,VALID,0,
2016-06-11, 11:40:04,VALID,919.318,VALID,0,INVALID,112.011,VALID,253.776,VALID,23.4064,VALID,23,VALID,0,
2016-06-11, 11:41:04,VALID,919.372,VALID,0,INVALID,112.499,VALID,252.057,VALID,23.4632,VALID,16,VALID,0,
2016-06-11, 11:42:04,VALID,919.35,VALID,0,INVALID,113.025,VALID,252.379,VALID,23.6193,VALID,18,VALID,0,
2016-06-11, 11:43:04,VALID,919.368,VALID,0,INVALID,112.27,VALID,256.677,VALID,23.6193,VALID,25,VALID,0,
2016-06-11, 11:44:04,VALID,919.342,VALID,0,INVALID,111.553,VALID,268.603,VALID,23.5395,VALID,18,VALID,1.77109,
2016-06-11, 11:45:04,VALID,919.352,VALID,0,INVALID,109.747,VALID,279.454,VALID,23.3461,VALID,14,VALID,1.07422,
2016-06-11, 11:46:04,VALID,919.297,VALID,0,INVALID,111.927,VALID,292.133,VALID,23.3656,VALID,26,VALID,0,
2016-06-11, 11:47:04,VALID,919.297,VALID,0.2,INVALID,112.849,VALID,308.141,VALID,23.3638,VALID,30,VALID,0,
2016-06-11, 11:48:04,VALID,919.27,VALID,0,INVALID,112.018,VALID,322.646,VALID,23.2875,VALID,6,VALID,0,
2016-06-11, 11:49:04,VALID,919.268,VALID,0,INVALID,112.834,VALID,328.34,VALID,23.3638,VALID,13,VALID,0,
2016-06-11, 11:50:04,VALID,919.211,VALID,0,INVALID,112.872,VALID,319.1,VALID,23.3851,VALID,24,VALID,0,
2016-06-11, 11:51:04,VALID,919.22,VALID,0,INVALID,112.613,VALID,324.58,VALID,23.3656,VALID,4,VALID,0,
2016-06-11, 11:52:04,VALID,919.173,VALID,0,INVALID,113.116,VALID,323.505,VALID,23.3638,VALID,17,VALID,0,
2016-06-11, 11:53:04,VALID,919.185,VALID,0.2,INVALID,113.261,VALID,338.01,VALID,23.3851,VALID,11,VALID,0,
2016-06-11, 11:54:04,VALID,919.131,VALID,0,INVALID,113.772,VALID,379.482,VALID,23.5217,VALID,9,VALID,0,
2016-06-11, 11:55:04,VALID,919.125,VALID,0,INVALID,113.566,VALID,406.235,VALID,23.4419,VALID,24,VALID,0,
2016-06-11, 11:56:04,VALID,919.109,VALID,0,INVALID,113.84,VALID,422.781,VALID,23.598,VALID,8,VALID,0,
2016-06-11, 11:57:04,VALID,919.07,VALID,0,INVALID,113.253,VALID,454.906,VALID,23.5217,VALID,360,VALID,0,
2016-06-11, 11:58:04,VALID,919.013,VALID,0,INVALID,113.322,VALID,451.038,VALID,23.6584,VALID,4,VALID,0,
2016-06-11, 11:59:04,VALID,919.002,VALID,0,INVALID,113.383,VALID,455.013,VALID,23.756,VALID,5,VALID,0,
2016-06-11, 12:00:04,VALID,918.932,VALID,0,INVALID,112.011,VALID,456.84,VALID,23.7169,VALID,25,VALID,0,
2016-06-11, 12:01:04,VALID,918.908,VALID,0,INVALID,112.491,VALID,448.997,VALID,23.8749,VALID,35,VALID,0,
2016-06-11, 12:02:04,VALID,918.904,VALID,0,INVALID,111.592,VALID,435.781,VALID,23.8926,VALID,35,VALID,0,
2016-06-11, 12:03:04,VALID,918.899,VALID,0,INVALID,110.86,VALID,441.153,VALID,23.9707,VALID,35,VALID,0,
2016-06-11, 12:04:04,VALID,918.877,VALID,0,INVALID,109.289,VALID,455.443,VALID,24.0292,VALID,35,VALID,0,
2016-06-11, 12:05:04,VALID,918.863,VALID,0,INVALID,109.388,VALID,453.724,VALID,24.1482,VALID,291,VALID,0,
2016-06-11, 12:06:04,VALID,918.822,VALID,0,VALID,104,VALID,413.863,VALID,24.1269,VALID,284,VALID,0,
2016-06-11, 12:07:04,VALID,918.795,VALID,0,VALID,104,VALID,411.392,VALID,24.0878,VALID,260,VALID,0,
2016-06-11, 12:08:04,VALID,918.803,VALID,0,VALID,104,VALID,417.409,VALID,23.9512,VALID,255,VALID,0,
2016-06-11, 12:09:04,VALID,918.734,VALID,0,INVALID,109.838,VALID,420.847,VALID,23.8731,VALID,270,VALID,0,
2016-06-11, 12:10:04,VALID,918.748,VALID,0,INVALID,110.57,VALID,432.343,VALID,23.9316,VALID,253,VALID,0,
2016-06-11, 12:11:04,VALID,918.69,VALID,0,INVALID,109.388,VALID,455.55,VALID,23.9121,VALID,253,VALID,0,
2016-06-11, 12:12:04,VALID,918.685,VALID,0,VALID,104,VALID,509.164,VALID,23.9725,VALID,253,VALID,0,
2016-06-11, 12:13:04,VALID,918.677,VALID,0,INVALID,109.35,VALID,586.951,VALID,24.0097,VALID,253,VALID,0,
2016-06-11, 12:14:04,VALID,918.651,VALID,0,VALID,104,VALID,524.957,VALID,24.0878,VALID,253,VALID,0,
2016-06-11, 12:15:04,VALID,918.663,VALID,0,VALID,104,VALID,499.279,VALID,24.2049,VALID,318,VALID,0,
2016-06-11, 12:16:04,VALID,918.639,VALID,0,VALID,104,VALID,461.46,VALID,24.3026,VALID,319,VALID,0,
2016-06-11, 12:17:04,VALID,918.627,VALID,0,VALID,104,VALID,364.225,VALID,24.2812,VALID,335,VALID,0,
2016-06-11, 12:18:04,VALID,918.619,VALID,0,VALID,104,VALID,338.977,VALID,24.2245,VALID,326,VALID,0,
2016-06-11, 12:19:04,VALID,918.606,VALID,0,VALID,104,VALID,349.184,VALID,24.1641,VALID,13,VALID,0.0632813,
2016-06-11, 12:20:04,VALID,918.6,VALID,0,INVALID,109.457,VALID,359.606,VALID,24.1464,VALID,9,VALID,0.394531,
2016-06-11, 12:21:04,VALID,918.568,VALID,0,INVALID,109.96,VALID,364.333,VALID,24.1073,VALID,58,VALID,0.139062,
2016-06-11, 12:22:04,VALID,918.564,VALID,0,INVALID,109.686,VALID,364.655,VALID,24.0878,VALID,56,VALID,0,
2016-06-11, 12:23:04,VALID,918.545,VALID,0,INVALID,109.16,VALID,364.118,VALID,24.125,VALID,350,VALID,0,
2016-06-11, 12:24:04,VALID,918.5,VALID,0,VALID,104,VALID,367.234,VALID,24.1073,VALID,1,VALID,0,
2016-06-11, 12:25:04,VALID,918.496,VALID,0,VALID,104,VALID,373.573,VALID,24.0665,VALID,344,VALID,0,
2016-06-11, 12:26:04,VALID,918.483,VALID,0,VALID,104,VALID,378.837,VALID,24.1269,VALID,344,VALID,0,
2016-06-11, 12:27:04,VALID,918.482,VALID,0,VALID,104,VALID,380.449,VALID,24.1641,VALID,346,VALID,0,
2016-06-11, 12:28:04,VALID,918.447,VALID,0,VALID,100.477,VALID,378.515,VALID,24.244,VALID,348,VALID,0,
2016-06-11, 12:29:04,VALID,918.436,VALID,0,VALID,93.9586,VALID,372.606,VALID,24.3806,VALID,348,VALID,0,
2016-06-11, 12:30:04,VALID,918.449,VALID,0,VALID,99.1273,VALID,367.019,VALID,24.5173,VALID,348,VALID,0,
2016-06-11, 12:31:04,VALID,918.437,VALID,0,VALID,104,VALID,363.796,VALID,24.5564,VALID,269,VALID,0,
2016-06-11, 12:32:04,VALID,918.435,VALID,0,VALID,104,VALID,362.506,VALID,24.5368,VALID,252,VALID,0,
2016-06-11, 12:33:04,VALID,918.416,VALID,0,VALID,102.192,VALID,362.077,VALID,24.5778,VALID,245,VALID,0,
2016-06-11, 12:34:04,VALID,918.41,VALID,0,VALID,104,VALID,363.688,VALID,24.4783,VALID,282,VALID,0,
2016-06-11, 12:35:04,VALID,918.388,VALID,0,VALID,98.891,VALID,368.738,VALID,24.4783,VALID,282,VALID,0,
2016-06-11, 12:36:04,VALID,918.393,VALID,0,VALID,99.5771,VALID,376.581,VALID,24.4783,VALID,282,VALID,0,
2016-06-11, 12:37:04,VALID,918.341,VALID,0,VALID,104,VALID,387.003,VALID,24.6131,VALID,282,VALID,0,